Location: Dammartin
(48.9032°N, 1.6195°E)
Time: 01:12:52
(UTC+00:00)

ACS3 Solar Sail - Visible Passes

Search period start: 09 November 2024 00:00
Search period end: 19 November 2024 00:00
Orbit: 962 x 1019 km, 97.5° (Epoch: 08 November)

Date Brightness Start Highest point End Pass type
(mag) Time Alt. Az. Time Alt. Az. Time Alt. Az.
09 Nov 3.4 17:07:20 10° ENE 17:10:17 14° NE 17:13:13 10° NNE visible
09 Nov 1.8 18:51:52 54° ESE 18:52:50 61° ENE 18:58:59 10° N visible
09 Nov 3.5 20:36:50 27° W 20:36:58 27° W 20:42:14 10° NNW visible
10 Nov 3.0 17:36:31 17° E 17:38:58 21° ENE 17:43:28 10° N visible
10 Nov 1.8 19:21:29 77° S 19:21:59 86° WSW 19:28:18 10° NNW visible
10 Nov 4.2 21:06:27 17° W 21:06:36 17° W 21:10:27 10° NW visible
11 Nov 2.5 18:06:04 28° E 18:07:45 32° ENE 18:13:09 10° N visible
11 Nov 2.4 19:51:02 55° WSW 19:51:12 55° W 19:57:21 10° NNW visible
12 Nov 3.5 16:52:39 10° ENE 16:54:17 11° NE 16:55:54 10° NNE visible
12 Nov 2.0 18:35:33 45° E 18:36:36 49° ENE 18:42:35 10° N visible
12 Nov 3.2 20:20:32 34° W 20:20:32 34° W 20:26:09 10° NNW visible
13 Nov 3.2 17:20:02 13° E 17:22:45 17° NE 17:26:34 10° NNE visible
13 Nov 1.7 19:04:59 72° ESE 19:05:31 77° ENE 19:11:46 10° N visible
13 Nov 3.9 20:49:57 21° W 20:49:57 21° W 20:54:31 10° NW visible
14 Nov 2.7 17:49:24 22° E 17:51:16 26° ENE 17:56:16 10° N visible
14 Nov 2.0 19:34:21 68° WSW 19:34:30 69° W 19:40:45 10° NNW visible
14 Nov 4.4 21:19:18 12° W 21:19:23 12° W 21:21:48 10° WNW visible
15 Nov 4.6 06:25:25 10° NE 06:28:19 13° E 06:31:11 10° ESE visible
15 Nov 2.2 18:18:42 36° E 18:19:53 40° ENE 18:25:36 10° N visible
15 Nov 2.8 20:03:39 43° W 20:03:39 43° W 20:09:28 10° NNW visible
16 Nov 3.4 17:03:04 10° E 17:06:02 14° NE 17:08:59 10° NNE visible
16 Nov 1.8 18:47:56 59° E 18:48:35 62° ENE 18:54:42 10° N visible
16 Nov 3.6 20:32:53 26° W 20:32:53 26° W 20:37:52 10° NNW visible
17 Nov 3.0 17:32:10 18° E 17:34:19 21° ENE 17:38:47 10° N visible
17 Nov 1.7 19:17:06 83° SSW 19:17:19 85° WSW 19:23:35 10° NNW visible
17 Nov 4.2 21:02:03 16° W 21:02:03 16° W 21:05:38 10° NW visible
18 Nov 2.5 18:01:16 29° E 18:02:42 32° ENE 18:08:04 10° N visible
18 Nov 2.4 19:46:12 54° W 19:46:12 54° W 19:52:14 10° NNW visible
